Flag for Spain Weather past 2 weeks in Valladolid, Spain

Now
52 °F

Passing clouds.


Feels Like: 51 °F
Forecast: 54 / 69 °F
Wind: 3 mph from South

Location: Valladolid / Villanubla

Current Time: Sep 18, 2014 at 8:19:28 AM

Latest Report: Sep 18, 2014 at 7:30 AM


Visibility: N/A

Pressure: 29.80 "Hg

Humidity: 100%

Dew point: 52 °F

Location of ValladolidLocation

Historic Weather in Valladolid — Graph

°F

Valladolid temperature yesterday

Maximum temperature yesterday: 73 °F (at 3:00 PM)
Minimum temperature yesterday: 57 °F (at 7:00 AM)
Average temperature yesterday: 64 °F

Past Weeks' High & Low Weather Summary

 TemperatureHumidityPressure
High86 °F (Sep 3, 3:30 PM)100% (Sep 5, 8:00 AM)30.12 "Hg (Sep 5, 8:00 AM)
Low52 °F (Sep 18, 7:00 AM)20% (Sep 5, 6:30 PM)29.71 "Hg (Sep 16, 4:30 PM)
Average71 °F55%29.98 "Hg
* Reported Sep 3 7:00 AM — Sep 18 7:00 AM, Valladolid, Weather by CustomWeather, © 2014

Note: Actual official high and low records may vary slightly from our data, if they occured in-between our weather recording intervals... More about our weather records

Advertising

Valladolid weather history for previous 24 hours

 ConditionsComfort  
Time TempWeatherWind HumidityBarometerVisibility
7:00 AM
Sep 18
52 °FClear.3 mph94%29.80 "Hg10 mi
9:30 PM
Sep 17
59 °FPassing clouds.6 mph82%29.80 "HgN/A
9:00 PM57 °FScattered showers. Partly sunny.5 mph82%29.80 "HgN/A
8:30 PM59 °FScattered showers. Partly sunny.14 mph77%29.80 "HgN/A
8:00 PM64 °FScattered showers. Partly sunny.13 mph64%29.80 "HgN/A
7:30 PM64 °FScattered clouds.12 mph60%29.77 "HgN/A
7:00 PM66 °FPassing clouds.16 mph52%29.77 "HgN/A
6:30 PM70 °FPassing clouds.20 mph46%29.77 "HgN/A
6:00 PM68 °FPassing clouds.15 mph56%29.77 "HgN/A
5:30 PM66 °FScattered clouds.14 mph73%29.77 "HgN/A
5:00 PM66 °FPartly sunny.18 mph64%29.77 "HgN/A
4:30 PM70 °FPartly sunny.22 mph53%29.77 "HgN/A
4:00 PM72 °FPartly sunny.20 mph53%29.77 "HgN/A
3:30 PM73 °FPartly sunny.22 mph47%29.74 "HgN/A
3:00 PM73 °FPartly sunny.16 mph50%29.74 "HgN/A
2:30 PM66 °FScattered showers. Partly sunny.15 mph78%29.77 "HgN/A
2:00 PM70 °FPartly sunny.17 mph60%29.77 "HgN/A
1:30 PM70 °FPartly sunny.13 mph60%29.77 "HgN/A
1:00 PM68 °FBroken clouds.13 mph69%29.77 "HgN/A
12:30 PM68 °FBroken clouds.15 mph69%29.80 "HgN/A
12:00 PM66 °FBroken clouds.16 mph73%29.77 "HgN/A
11:30 AM64 °FBroken clouds.13 mph78%29.77 "HgN/A
11:00 AM63 °FPartly sunny.13 mph83%29.77 "HgN/A
10:30 AM61 °FPartly sunny.8 mph88%29.77 "HgN/A
10:00 AM61 °FScattered clouds.6 mph88%29.77 "HgN/A
9:30 AM59 °FScattered clouds.6 mph94%29.74 "HgN/A
9:00 AM61 °FSprinkles. Passing clouds.8 mph88%29.77 "HgN/A
8:46 AM59 °FSprinkles. Passing clouds.9 mph88%29.77 "HgN/A
8:30 AM59 °FPassing clouds.7 mph88%29.74 "HgN/A
8:00 AM59 °FPassing clouds.8 mph88%29.74 "HgN/A
Weather by CustomWeather, © 2014

See weather overviewHow to use our weather pages